Regional Weather Roundup
Issued by NWS

Home | Current Version | Previous Version | Text Only | Print | Product List | Glossary Off
Versions: 1 2 3 4 5 6 7 8 9 10 11 12 13 14 15 16 17 18 19 20 21 22 23 24 25 26 27 28 29 30 31 32 33 34 35 36 37 38 39 40 41 42 43 44 45 46 47 48 49 50

000
ASUS44 KMEG 211210
RWRTN
TENNESSEE HOURLY STATE WEATHER ROUNDUP
NATIONAL WEATHER SERVICE MEMPHIS TN
600 AM CST WED FEB 21 2018

TNZ002-004-019-021-049-052-054-088>092-211300-
WEST TENNESSEE

CITY           SKY/WX    TMP DP  RH WIND       PRES   REMARKS
MEMPHIS INTL   LGT RAIN  58  57  97 N15       30.23S FOG
NWS MEMPHIS      N/A     58 N/A N/A MISG        N/A
JACKSON        LGT RAIN  59  57  93 N9        30.23R
DYERSBURG      HVY RAIN  46  45  96 N10       30.30R
SOMERVILLE     CLOUDY    59  57  94 VRB6G14   30.23R FOG
COVINGTON      CLOUDY    52  50  93 N15       30.26R FOG
UNION CITY     CLOUDY    46  45  93 N14       30.27R FOG
BOLIVAR        CLOUDY    59  57  94 N10       30.21R
PARIS          CLOUDY    55  54  94 N9        30.24R
LEXINGTON      CLOUDY    68  63  83 NW13G24   30.22R
SELMER         MOCLDY    68  64  88 VRB6G15   30.21R
SAVANNAH       CLOUDY    68  64  88 S12       30.21S
$$

TNZ008-025-027-028-033-062-065-066-211300-
NORTH MIDDLE TENNESSEE

CITY           SKY/WX    TMP DP  RH WIND       PRES   REMARKS
NASHVILLE      MOCLDY    71  62  73 S17G25    30.23R
PORTLAND       CLOUDY    68  63  83 S13       30.21R
CLARKSVILLE    RAIN      53  49  86 NW13      30.25R FOG
SMYRNA         MOCLDY    69  64  84 S12G20    30.23S
COOKEVILLE     CLOUDY    68  63  83 SW9G16    30.27R
GALLATIN       CLOUDY    70  63  78 S8        30.24R
CROSSVILLE     CLOUDY    65  60  84 S8        30.32R
$$

TNZ061-075-076-078-094-096-097-211300-
SOUTH MIDDLE TENNESSEE

CITY           SKY/WX    TMP DP  RH WIND       PRES   REMARKS
FAYETTEVILLE   CLOUDY    68  66  94 S10       30.29R
TULLAHOMA      CLOUDY    66  64  94 S9G15     30.27R
WINCHESTER     PTCLDY    68  63  83 SW7       30.30R
MCMINNVILLE    CLOUDY    68  63  83 SW10      30.27S
COLUMBIA       CLOUDY    70  68  94 S21G29    30.22R
SHELBYVILLE    CLOUDY    68  64  88 S13       30.27R
$$

TNZ017-018-042-046-047-211300-
NORTHEAST TENNESSEE

CITY           SKY/WX    TMP DP  RH WIND       PRES   REMARKS
TRI CITIES     LGT RAIN  63  60  90 SW7       30.35R
ELIZABETHTON   CLOUDY    57  55  94 CALM      30.36R
$$

TNZ012-013-036-069-073-074-211300-
CENTRAL EAST TENNESSEE

CITY           SKY/WX    TMP DP  RH WIND       PRES   REMARKS
KNOXVILLE      FAIR      63  62  97 CALM      30.31R
OAK RIDGE      CLOUDY    68  64  87 CALM      30.33R
GATLINBURG     CLEAR     57  57 100 CALM      30.33R FOG
MORRISTOWN     PTCLDY    59  59 100 CALM      30.33S
JACKSBORO      CLOUDY    68  61  77 S9        30.34S
$$

TNZ083-085-099-211300-
SOUTHEAST TENNESSEE

CITY           SKY/WX    TMP DP  RH WIND       PRES   REMARKS
CHATTANOOGA    MOCLDY    68  63  84 S8        30.33R
$$

SKY/WX REPORTED AS FAIR MEANS FEW OR NO CLOUDS BELOW
12 THOUSAND FEET.





USA.gov is the U.S. government's official web portal to all federal, state and local government web resources and services.